Sauk Centre, MN

2:56 PM CST on December 06, 2019 (GMT -0600)
Sauk Centre

Weather History for KD39 - September, 2019

Change the Weather History Date:

Tuesday, September 3, 2019

  Actual Average (WUND) Record (WUND)
Temperature  
Mean Temperature 62 °F -  
Max Temperature 68 °F - - (-1)
Min Temperature 57 °F - - (-1)
Degree Days  
Heating Degree Days 2    
Growing Degree Days 12 (Base 50)    
Moisture  
Dew Point 55 °F    
Average Humidity 77    
Maximum Humidity 95    
Minimum Humidity 59    
Precipitation  
Precipitation 0.00 in - - ()
Sea Level Pressure  
Sea Level Pressure 29.89 in    
Wind  
Wind Speed 11 mph ()    
Max Wind Speed 25 mph    
Max Gust Speed 37 mph    
Visibility 9.9 miles    
Events      
Averages and records for this station are not official NWS values.
T = Trace of Precipitation, MM = Missing Value Source: Averaged Metar Reports

Daily Weather History Graph

Daily Weather History Graph

Search for Another Location

Airport or City:

Astronomy

Sep. 03, 2019 Rise Set
Actual Time 6:43 AM CDT 7:54 PM CDT
Civil Twilight 6:12 AM CDT 8:24 PM CDT
Nautical Twilight 5:35 AM CDT 9:01 PM CDT
Astronomical Twilight 4:56 AM CDT 9:40 PM CDT
Moon 11:51 AM CDT (9/3) 10:35 PM CDT (9/3)
Length of Visible Light 14h 12m
Length of Day
13h 11m
Waxing Crescent, 25% of the Moon is Illuminated
Sep 3
Waxing Crescent
Sep 5
First Quarter
Sep 13
Full
Sep 21
Last Quarter
Sep 28
New

Hourly Weather History & Observations

Time (CDT) Temp. Dew Point Humidity Pressure Visibility Wind Dir Wind Speed Gust Speed Precip Events Conditions
12:16 AM 59.0 °F 57.2 °F 94% 29.81 in 10.0 mi SE 5.8 mph - N/A   Overcast
12:36 AM 59.0 °F 57.4 °F 94% 29.80 in 10.0 mi SSE 8.1 mph - N/A   Overcast
12:55 AM 59.0 °F 57.6 °F 95% 29.80 in 10.0 mi SSE 5.8 mph - N/A   Overcast
12:56 AM 59.0 °F 57.6 °F 95% 29.80 in 10.0 mi SSE 5.8 mph - N/A   Overcast
1:15 AM 59.4 °F 57.7 °F 94% 29.79 in 10.0 mi SSE 8.1 mph - N/A   Overcast
1:16 AM 59.4 °F 57.7 °F 94% 29.79 in 10.0 mi SSE 8.1 mph - N/A   Overcast
1:38 AM 59.2 °F 57.7 °F 95% 29.78 in 10.0 mi SSE 5.8 mph - N/A   Overcast
1:57 AM 59.7 °F 58.1 °F 94% 29.77 in 10.0 mi SSE 5.8 mph - N/A   Overcast
2:17 AM 59.9 °F 58.1 °F 94% 29.76 in 10.0 mi SSE 3.5 mph - N/A   Overcast
2:36 AM 60.1 °F 58.5 °F 94% 29.76 in 10.0 mi South 3.5 mph - N/A   Overcast
2:55 AM 60.4 °F 58.3 °F 93% 29.75 in 10.0 mi South 3.5 mph - N/A   Overcast
3:15 AM 60.8 °F 58.5 °F 92% 29.75 in 10.0 mi Calm Calm - N/A   Overcast
3:16 AM 60.8 °F 58.5 °F 92% 29.75 in 10.0 mi WSW 3.5 mph - N/A   Overcast
3:39 AM 60.4 °F 58.5 °F 93% 29.76 in 10.0 mi SSW 6.9 mph - N/A   Overcast
3:59 AM 60.8 °F 58.6 °F 93% 29.77 in 10.0 mi SW 5.8 mph - N/A   Overcast
4:16 AM 60.8 °F 59.0 °F 94% 29.77 in 10.0 mi SW 3.5 mph - N/A   Overcast
4:35 AM 61.0 °F 59.4 °F 94% 29.77 in 10.0 mi WSW 8.1 mph - N/A   Overcast
4:36 AM 61.2 °F 59.5 °F 94% 29.76 in 10.0 mi WSW 9.2 mph - N/A   Overcast
4:55 AM 62.2 °F 60.4 °F 94% 29.76 in 10.0 mi West 9.2 mph - N/A   Overcast
4:56 AM 62.2 °F 60.4 °F 94% 29.76 in 10.0 mi West 9.2 mph - N/A   Overcast
5:15 AM 62.2 °F 60.8 °F 95% 29.76 in 10.0 mi West 10.4 mph - N/A   Overcast
5:20 AM 62.6 °F 61.0 °F 94% 29.76 in 10.0 mi West 11.5 mph - N/A   Overcast
5:38 AM 63.0 °F 61.5 °F 95% 29.76 in 10.0 mi West 12.7 mph - N/A   Overcast
5:57 AM 62.8 °F 61.3 °F 95% 29.77 in 10.0 mi West 11.5 mph - N/A   Overcast
6:16 AM 63.5 °F 61.7 °F 94% 29.78 in 10.0 mi West 13.8 mph 19.6 mph N/A   Overcast
6:36 AM 63.5 °F 61.7 °F 94% 29.79 in 10.0 mi WNW 15.0 mph 19.6 mph N/A   Overcast
6:55 AM 63.3 °F 61.0 °F 92% 29.80 in 10.0 mi West 11.5 mph - N/A   Overcast
7:15 AM 63.0 °F 60.4 °F 91% 29.81 in 10.0 mi West 13.8 mph - N/A   Overcast
7:19 AM 62.8 °F 60.3 °F 91% 29.81 in 10.0 mi West 13.8 mph - N/A   Mostly Cloudy
7:37 AM 61.9 °F 59.9 °F 93% 29.81 in 10.0 mi West 10.4 mph - N/A   Mostly Cloudy
7:56 AM 62.1 °F 59.9 °F 93% 29.82 in 10.0 mi West 12.7 mph 17.3 mph N/A   Mostly Cloudy
8:15 AM 62.2 °F 59.4 °F 90% 29.82 in 10.0 mi West 15.0 mph 25.3 mph N/A   Mostly Cloudy
8:16 AM 62.4 °F 59.4 °F 90% 29.82 in 10.0 mi West 16.1 mph 25.3 mph N/A   Mostly Cloudy
8:35 AM 63.0 °F 58.8 °F 86% 29.82 in 10.0 mi West 15.0 mph 24.2 mph N/A   Mostly Cloudy
8:36 AM 63.0 °F 58.6 °F 86% 29.82 in 10.0 mi West 17.3 mph 24.2 mph N/A   Mostly Cloudy
8:59 AM 63.9 °F 57.9 °F 81% 29.82 in 10.0 mi West 11.5 mph 23.0 mph N/A   Scattered Clouds
9:16 AM 64.4 °F 57.9 °F 79% 29.81 in 10.0 mi West 15.0 mph 21.9 mph N/A   Clear
9:35 AM 65.3 °F 57.6 °F 76% 29.81 in 10.0 mi West 18.4 mph 23.0 mph N/A   Clear
9:36 AM 65.5 °F 57.4 °F 75% 29.81 in 10.0 mi West 19.6 mph 23.0 mph N/A   Clear
9:55 AM 65.8 °F 56.3 °F 71% 29.82 in 10.0 mi WNW 17.3 mph - N/A   Clear
9:56 AM 65.8 °F 56.3 °F 71% 29.82 in 10.0 mi WNW 15.0 mph - N/A   Scattered Clouds
10:15 AM 66.2 °F 55.6 °F 69% 29.82 in 10.0 mi WNW 18.4 mph 28.8 mph N/A   Scattered Clouds
10:16 AM 66.2 °F 55.8 °F 69% 29.82 in 10.0 mi WNW 18.4 mph 28.8 mph N/A   Scattered Clouds
10:38 AM 66.6 °F 55.2 °F 67% 29.82 in 10.0 mi WNW 20.7 mph 28.8 mph N/A   Scattered Clouds
10:56 AM 67.1 °F 53.6 °F 62% 29.82 in 10.0 mi WNW 20.7 mph 32.2 mph N/A   Scattered Clouds
11:15 AM 66.9 °F 54.1 °F 63% 29.83 in 10.0 mi WNW 20.7 mph 26.5 mph N/A   Clear
11:16 AM 66.9 °F 54.3 °F 64% 29.83 in 10.0 mi WNW 19.6 mph 26.5 mph N/A   Clear
11:35 AM 67.5 °F 53.8 °F 61% 29.83 in 10.0 mi WNW 20.7 mph 29.9 mph N/A   Scattered Clouds
11:36 AM 67.5 °F 53.6 °F 61% 29.83 in 10.0 mi WNW 21.9 mph 29.9 mph N/A   Scattered Clouds
11:55 AM 67.8 °F 54.0 °F 61% 29.84 in 10.0 mi WNW 19.6 mph 36.8 mph N/A   Clear
11:59 AM 67.8 °F 53.4 °F 60% 29.84 in 10.0 mi NW 19.6 mph 36.8 mph N/A   Scattered Clouds
12:18 PM 68.0 °F 53.1 °F 59% 29.85 in 10.0 mi WNW 25.3 mph 35.7 mph N/A   Scattered Clouds
12:38 PM 67.1 °F 52.3 °F 59% 29.85 in 10.0 mi WNW 21.9 mph 33.4 mph N/A   Scattered Clouds
12:57 PM 67.1 °F 53.1 °F 61% 29.87 in 10.0 mi WNW 19.6 mph 31.1 mph N/A   Mostly Cloudy
1:17 PM 66.4 °F 53.1 °F 62% 29.87 in 10.0 mi WNW 20.7 mph 31.1 mph N/A   Mostly Cloudy
1:35 PM 66.4 °F 53.4 °F 63% 29.88 in 10.0 mi WNW 19.6 mph 24.2 mph N/A   Mostly Cloudy
1:36 PM 66.4 °F 53.4 °F 63% 29.88 in 10.0 mi WNW 21.9 mph 25.3 mph N/A   Mostly Cloudy
1:55 PM 67.5 °F 52.7 °F 59% 29.89 in 10.0 mi WNW 18.4 mph 27.6 mph N/A   Overcast
1:56 PM 67.6 °F 52.7 °F 59% 29.89 in 10.0 mi WNW 19.6 mph 27.6 mph N/A   Overcast
2:19 PM 66.4 °F 53.2 °F 63% 29.90 in 10.0 mi WNW 15.0 mph 24.2 mph N/A   Overcast
2:37 PM 65.8 °F 53.1 °F 63% 29.91 in 10.0 mi WNW 17.3 mph 24.2 mph N/A   Overcast
2:56 PM 65.7 °F 52.9 °F 63% 29.91 in 10.0 mi WNW 19.6 mph 27.6 mph N/A   Overcast
3:15 PM 64.9 °F 53.4 °F 66% 29.91 in 10.0 mi WNW 16.1 mph 25.3 mph N/A   Overcast
3:16 PM 64.9 °F 53.2 °F 66% 29.91 in 10.0 mi WNW 16.1 mph 25.3 mph N/A   Overcast
3:35 PM 64.4 °F 54.0 °F 69% 29.92 in 10.0 mi WNW 16.1 mph - N/A   Overcast
3:40 PM 64.4 °F 53.6 °F 68% 29.92 in 10.0 mi WNW 16.1 mph 20.7 mph N/A   Overcast
3:57 PM 64.0 °F 52.7 °F 67% 29.93 in 10.0 mi NW 18.4 mph 24.2 mph N/A   Overcast
4:15 PM 63.7 °F 53.6 °F 70% 29.94 in 10.0 mi NW 13.8 mph 20.7 mph N/A   Overcast
4:35 PM 62.8 °F 53.4 °F 71% 29.94 in 10.0 mi NW 12.7 mph 23.0 mph N/A   Overcast
4:36 PM 62.8 °F 53.4 °F 71% 29.94 in 10.0 mi NW 16.1 mph 23.0 mph N/A   Overcast
4:55 PM 62.6 °F 52.7 °F 70% 29.95 in 10.0 mi WNW 13.8 mph 23.0 mph N/A   Overcast
4:56 PM 62.6 °F 52.7 °F 70% 29.95 in 10.0 mi WNW 15.0 mph 23.0 mph N/A   Overcast
5:15 PM 63.0 °F 53.2 °F 71% 29.96 in 10.0 mi WNW 18.4 mph 23.0 mph N/A   Overcast
5:16 PM 63.0 °F 53.4 °F 71% 29.96 in 10.0 mi WNW 18.4 mph 23.0 mph N/A   Overcast
5:35 PM 62.8 °F 54.0 °F 73% 29.96 in 10.0 mi WNW 16.1 mph 23.0 mph N/A   Overcast
5:39 PM 62.6 °F 53.4 °F 72% 29.96 in 10.0 mi WNW 16.1 mph 23.0 mph N/A   Overcast
5:58 PM 62.6 °F 52.9 °F 70% 29.97 in 10.0 mi NW 12.7 mph - N/A   Overcast
6:16 PM 62.6 °F 53.2 °F 71% 29.97 in 10.0 mi NW 16.1 mph - N/A   Overcast
6:35 PM 62.2 °F 53.8 °F 74% 29.98 in 10.0 mi NW 13.8 mph - N/A   Mostly Cloudy
6:36 PM 62.4 °F 53.8 °F 73% 29.98 in 10.0 mi WNW 11.5 mph - N/A   Scattered Clouds
6:55 PM 62.1 °F 52.9 °F 72% 29.99 in 10.0 mi NW 17.3 mph 21.9 mph N/A   Scattered Clouds
6:56 PM 62.1 °F 52.9 °F 72% 29.99 in 10.0 mi NW 18.4 mph 21.9 mph N/A   Scattered Clouds
7:18 PM 62.6 °F 53.1 °F 71% 29.99 in 10.0 mi NW 12.7 mph 17.3 mph N/A   Overcast
7:37 PM 61.2 °F 50.9 °F 69% 30.00 in 10.0 mi NW 13.8 mph 19.6 mph N/A   Overcast
7:56 PM 59.9 °F 51.1 °F 73% 30.01 in 4.0 mi NW 10.4 mph - N/A   Haze
8:15 PM 59.9 °F 51.4 °F 74% 30.02 in 10.0 mi NW 9.2 mph - N/A   Overcast
8:16 PM 59.9 °F 51.6 °F 74% 30.02 in 10.0 mi NW 10.4 mph - N/A   Overcast
8:35 PM 59.5 °F 50.9 °F 73% 30.03 in 10.0 mi NW 10.4 mph - N/A   Overcast
8:39 PM 59.5 °F 50.9 °F 73% 30.03 in 10.0 mi NNW 11.5 mph - N/A   Overcast
8:58 PM 59.2 °F 50.9 °F 74% 30.04 in 10.0 mi NW 9.2 mph 16.1 mph N/A   Overcast
9:15 PM 59.2 °F 49.3 °F 70% 30.05 in 10.0 mi NNW 13.8 mph 23.0 mph N/A   Overcast
9:35 PM 58.3 °F 48.0 °F 69% 30.06 in 10.0 mi NW 11.5 mph 17.3 mph N/A   Overcast
9:36 PM 58.5 °F 48.0 °F 68% 30.06 in 10.0 mi NW 12.7 mph 17.3 mph N/A   Overcast
9:55 PM 59.0 °F 48.6 °F 68% 30.06 in 10.0 mi NW 9.2 mph - N/A   Overcast
9:56 PM 58.8 °F 48.6 °F 69% 30.06 in 10.0 mi NW 9.2 mph - N/A   Overcast
10:15 PM 58.3 °F 49.5 °F 72% 30.07 in 10.0 mi NW 5.8 mph - N/A   Overcast
10:19 PM 58.3 °F 49.8 °F 73% 30.07 in 10.0 mi NW 6.9 mph - N/A   Overcast
10:38 PM 58.3 °F 50.7 °F 76% 30.08 in 10.0 mi WNW 6.9 mph - N/A   Overcast
10:56 PM 58.3 °F 50.9 °F 76% 30.08 in 10.0 mi NW 10.4 mph 16.1 mph N/A   Overcast
11:15 PM 58.1 °F 50.9 °F 77% 30.09 in 10.0 mi NNW 9.2 mph - N/A   Overcast
11:35 PM 57.2 °F 49.8 °F 76% 30.09 in 10.0 mi North 10.4 mph - N/A   Overcast
11:36 PM 57.2 °F 49.8 °F 76% 30.09 in 10.0 mi North 9.2 mph - N/A   Overcast
11:55 PM 57.2 °F 50.0 °F 77% 30.09 in 10.0 mi NNW 6.9 mph - N/A   Overcast
11:56 PM 57.2 °F 50.0 °F 77% 30.09 in 10.0 mi NNW 6.9 mph - N/A   Overcast